Zurück zum Katalog

COSMOS 1275 DEB

AktivPO
NORAD 42188·DEBRIS·🇷🇺 Russia

Gestartet Jun 4, 1981 von Plesetsk Cosmodrome

Loading…

Nächste Überflüge (nächste 24 Stunden)

TLE

AktuellSource: Space-Track

Epoche: Sep 14, 2026, 03:36 UTC

1 42188U 81053TC  26257.15060035  .00001935  00000-0  94986-3 0  9999
2 42188  82.8477  55.1034 0049693 208.2367 151.6117 14.16680449657168

Verfolge COSMOS 1275 DEB in Echtzeit mit AllMySat

Download on the App Store